Change the Weather History Date:

Tuesday, January 7, 2014

  Actual Average (KSNS) Record (KSNS)
Temperature  
Mean Temperature 54 °F 51 °F  
Max Temperature 66 °F 61 °F 78 °F (1962)
Min Temperature 42 °F 41 °F 26 °F (1937)
Degree Days  
Heating Degree Days 11 14  
Month to date heating degree days 98  
Since 1 July heating degree days 1151  
Cooling Degree Days 0 0  
Month to date cooling degree days 0  
Year to date cooling degree days 0  
Growing Degree Days 4 (Base 50)    
Moisture  
Dew Point 34 °F    
Average Humidity 55    
Maximum Humidity 66    
Minimum Humidity 30    
Precipitation  
Precipitation 0.00 in 0.08 in 0.58 in (1974)
Month to date precipitation 0.55  
Year to date precipitation 0.55  
Since 1 July precipitation 4.66  
Sea Level Pressure  
Sea Level Pressure 30.17 in    
Wind  
Wind Speed 1 mph (WSW)    
Max Wind Speed 10 mph    
Max Gust Speed -    
Visibility 9 miles    
Events      
T = Trace of Precipitation, MM = Missing Value Source: NWS Daily Summary

Daily Weather History Graph

Daily Weather History Graph

Search for Another Location

Airport or City:

Trip Planner

Search our weather history database for the weather conditions in past years. The results will help you decide how hot, cold, wet, or windy it might be!

Date:

Astronomy

Jan. 07, 2014 Rise Set
Actual Time 7:19 AM PST 5:05 PM PST
Civil Twilight 6:50 AM PST 5:33 PM PST
Nautical Twilight 6:18 AM PST 6:06 PM PST
Astronomical Twilight 5:46 AM PST 6:37 PM PST
Moon 11:21 AM PST (1/7) No Moon Set
Length of Visible Light 10h 43m
Length of Day
9h 46m
Waxing Crescent, 46% of the Moon is Illuminated
Jan 7
Waxing Crescent
Jan 7
First Quarter
Jan 15
Full
Jan 23
Last Quarter
Jan 30
New

Hourly Weather History & Observations

Time (PST) Temp. Windchill Dew Point Humidity Pressure Visibility Wind Dir Wind Speed Gust Speed Precip Events Conditions
12:10 AM 48.2 °F - 35.6 °F 62% 30.18 in 10.0 mi Calm Calm - N/A   Clear
12:30 AM 51.8 °F - 35.6 °F 54% 30.17 in 10.0 mi Calm Calm - N/A   Clear
12:50 AM 46.4 °F - 33.8 °F 62% 30.16 in 10.0 mi Calm Calm - N/A   Clear
1:10 AM 46.4 °F - 33.8 °F 62% 30.17 in 10.0 mi Calm Calm - N/A   Clear
1:30 AM 48.2 °F - 33.8 °F 58% 30.17 in 10.0 mi Calm Calm - N/A   Clear
1:50 AM 46.4 °F - 33.8 °F 62% 30.17 in 10.0 mi Calm Calm - N/A   Clear
2:10 AM 46.4 °F - 33.8 °F 62% 30.19 in 10.0 mi Calm Calm - N/A   Clear
2:30 AM 46.4 °F - 33.8 °F 62% 30.19 in 10.0 mi Calm Calm - N/A   Clear
2:50 AM 46.4 °F - 33.8 °F 62% 30.20 in 10.0 mi Calm Calm - N/A   Clear
3:10 AM 46.4 °F - 33.8 °F 62% 30.19 in 10.0 mi Calm Calm - N/A   Clear
3:30 AM 46.4 °F - 33.8 °F 62% 30.19 in 10.0 mi Calm Calm - N/A   Clear
3:50 AM 46.4 °F - 33.8 °F 62% 30.18 in 10.0 mi Calm Calm - N/A   Clear
4:10 AM 46.4 °F 43.5 °F 33.8 °F 62% 30.19 in 10.0 mi SSE 5.8 mph - N/A   Clear
4:30 AM 44.6 °F - 33.8 °F 66% 30.19 in 9.0 mi Calm Calm - N/A   Clear
4:50 AM 46.4 °F - 33.8 °F 62% 30.18 in 10.0 mi Calm Calm - N/A   Clear
5:10 AM 44.6 °F - 33.8 °F 66% 30.18 in 9.0 mi Calm Calm - N/A   Clear
5:30 AM 44.6 °F - 32.0 °F 61% 30.18 in 10.0 mi Calm Calm - N/A   Clear
5:50 AM 42.8 °F - 32.0 °F 66% 30.18 in 10.0 mi Calm Calm - N/A   Clear
6:10 AM 42.8 °F - 32.0 °F 66% 30.17 in 10.0 mi Calm Calm - N/A   Clear
6:30 AM 42.8 °F - 32.0 °F 66% 30.17 in 9.0 mi Calm Calm - N/A   Clear
6:50 AM 42.8 °F - 32.0 °F 66% 30.18 in 9.0 mi Calm Calm - N/A   Clear
7:10 AM 42.8 °F - 32.0 °F 66% 30.18 in 9.0 mi Calm Calm - N/A   Clear
7:30 AM 42.8 °F - 32.0 °F 66% 30.18 in 8.0 mi Calm Calm - N/A   Clear
7:50 AM 44.6 °F - 33.8 °F 66% 30.18 in 8.0 mi Calm Calm - N/A   Clear
8:10 AM 44.6 °F - 33.8 °F 66% 30.18 in 7.0 mi Calm Calm - N/A   Clear
8:30 AM 44.6 °F - 33.8 °F 66% 30.19 in 7.0 mi Calm Calm - N/A   Clear
8:50 AM 46.4 °F - 33.8 °F 62% 30.19 in 7.0 mi Calm Calm - N/A   Clear
9:10 AM 46.4 °F - 33.8 °F 62% 30.20 in 7.0 mi Calm Calm - N/A   Clear
9:30 AM 48.2 °F - 35.6 °F 62% 30.20 in 8.0 mi Calm Calm - N/A   Clear
9:50 AM 51.8 °F - 35.6 °F 54% 30.20 in 6.0 mi Calm Calm - N/A   Clear
10:10 AM 51.8 °F - 35.6 °F 54% 30.20 in 7.0 mi Calm Calm - N/A   Clear
10:30 AM 53.6 °F - 35.6 °F 51% 30.20 in 6.0 mi Calm Calm - N/A   Clear
10:50 AM 55.4 °F - 35.6 °F 47% 30.19 in 8.0 mi Calm Calm - N/A   Clear
11:10 AM 57.2 °F - 35.6 °F 44% 30.18 in 8.0 mi Calm Calm - N/A   Clear
11:30 AM 57.2 °F - 35.6 °F 44% 30.18 in 8.0 mi Calm Calm - N/A   Partly Cloudy
11:50 AM 57.2 °F - 35.6 °F 44% 30.17 in 8.0 mi Calm Calm - N/A   Partly Cloudy
12:10 PM 59.0 °F - 35.6 °F 42% 30.17 in 8.0 mi Calm Calm - N/A   Partly Cloudy
12:30 PM 60.8 °F - 33.8 °F 36% 30.16 in 9.0 mi Calm Calm - N/A   Clear
12:50 PM 62.6 °F - 35.6 °F 37% 30.15 in 9.0 mi Calm Calm - N/A   Clear
1:10 PM 62.6 °F - 35.6 °F 37% 30.15 in 9.0 mi Calm Calm - N/A   Clear
1:30 PM 62.6 °F - 35.6 °F 37% 30.14 in 9.0 mi Calm Calm - N/A   Clear
1:50 PM 62.6 °F - 35.6 °F 37% 30.14 in 8.0 mi Calm Calm - N/A   Clear
2:10 PM 64.4 °F - 35.6 °F 34% 30.13 in 8.0 mi Calm Calm - N/A   Clear
2:30 PM 64.4 °F - 35.6 °F 34% 30.13 in 8.0 mi NNW 4.6 mph - N/A   Clear
2:50 PM 64.4 °F - 37.4 °F 37% 30.12 in 8.0 mi Calm Calm - N/A   Clear
3:10 PM 64.4 °F - 35.6 °F 34% 30.12 in 8.0 mi Calm Calm - N/A   Clear
3:30 PM 66.2 °F - 35.6 °F 32% 30.13 in 10.0 mi Calm Calm - N/A   Clear
3:50 PM 66.2 °F - 33.8 °F 30% 30.12 in 10.0 mi Calm Calm - N/A   Clear
4:10 PM 66.2 °F - 33.8 °F 30% 30.12 in 10.0 mi Calm Calm - N/A   Clear
4:30 PM 64.4 °F - 33.8 °F 32% 30.13 in 10.0 mi Calm Calm - N/A   Clear
4:50 PM 60.8 °F - 35.6 °F 39% 30.13 in 10.0 mi WNW 6.9 mph - N/A   Clear
5:10 PM 60.8 °F - 37.4 °F 42% 30.14 in 10.0 mi West 9.2 mph - N/A   Clear
5:30 PM 57.2 °F - 39.2 °F 51% 30.14 in 10.0 mi WSW 10.4 mph - N/A   Clear
5:50 PM 55.4 °F - 37.4 °F 51% 30.14 in 10.0 mi WSW 10.4 mph - N/A   Clear
6:10 PM 55.4 °F - 35.6 °F 47% 30.14 in 10.0 mi WSW 6.9 mph - N/A   Clear
6:30 PM 53.6 °F - 35.6 °F 51% 30.15 in 10.0 mi WSW 6.9 mph - N/A   Clear
6:50 PM 53.6 °F - 35.6 °F 51% 30.15 in 10.0 mi Calm Calm - N/A   Clear
7:10 PM 51.8 °F - 35.6 °F 54% 30.16 in 10.0 mi Calm Calm - N/A   Clear
7:30 PM 50.0 °F - 35.6 °F 58% 30.15 in 10.0 mi SSE 6.9 mph - N/A   Clear
7:50 PM 48.2 °F - 35.6 °F 62% 30.16 in 10.0 mi Calm Calm - N/A   Clear
8:10 PM 50.0 °F - 35.6 °F 58% 30.17 in 10.0 mi Calm Calm - N/A   Clear
8:30 PM 48.2 °F - 35.6 °F 62% 30.17 in 10.0 mi Calm Calm - N/A   Clear
8:50 PM 46.4 °F - 33.8 °F 62% 30.18 in 10.0 mi Calm Calm - N/A   Clear
9:10 PM 44.6 °F - 33.8 °F 66% 30.19 in 10.0 mi Calm Calm - N/A   Clear
9:30 PM 44.6 °F - 32.0 °F 61% 30.20 in 10.0 mi Calm Calm - N/A   Clear
9:50 PM 44.6 °F 43.1 °F 33.8 °F 66% 30.20 in 10.0 mi East 3.5 mph - N/A   Clear
10:10 PM 42.8 °F - 32.0 °F 66% 30.20 in 10.0 mi Calm Calm - N/A   Clear
10:30 PM 42.8 °F - 32.0 °F 66% 30.21 in 10.0 mi Calm Calm - N/A   Mostly Cloudy
10:50 PM 42.8 °F - 32.0 °F 66% 30.21 in 10.0 mi Calm Calm - N/A   Scattered Clouds
11:10 PM 44.6 °F - 33.8 °F 66% 30.21 in 10.0 mi Calm Calm - N/A   Mostly Cloudy
11:30 PM 44.6 °F - 33.8 °F 66% 30.21 in 10.0 mi Calm Calm - N/A   Mostly Cloudy
11:50 PM 42.8 °F - 32.0 °F 66% 30.21 in 10.0 mi Calm Calm - N/A   Clear